ANA400 RJTT-RJAA

Flight info

Callsign ANA400
Flight time 0h 27m
Altitude 11000
Route RUTAS
Aircraft B738/M-SDE2E3FGHIRWXY/LB1

Departure

Time 2026-05-05 14:54
Airport Tokyo Haneda International Airport (RJTT)

Arrival

Time 2026-05-05 15:22
Airport Narita International Airport (RJAA)
Time Latitude Longitude Altitude Speed Heading
2026-05-05 14:42 35.55410 139.78785 27 ft 0 kts 284°
2026-05-05 14:46 35.55407 139.78799 27 ft 2 kts 284°
2026-05-05 14:46 35.55402 139.78819 26 ft 2 kts 287°
2026-05-05 14:46 35.55397 139.78838 30 ft 2 kts 288°
2026-05-05 14:47 35.55392 139.78857 29 ft 2 kts 290°
2026-05-05 14:47 35.55386 139.78875 30 ft 2 kts 293°
2026-05-05 14:47 35.55379 139.78893 26 ft 2 kts 298°
2026-05-05 14:47 35.55370 139.78910 27 ft 2 kts 307°
2026-05-05 14:48 35.55359 139.78925 27 ft 2 kts 322°
2026-05-05 14:48 35.55346 139.78935 27 ft 2 kts 333°
2026-05-05 14:48 35.55342 139.78938 27 ft 0 kts 332°
2026-05-05 14:49 35.55391 139.78940 27 ft 12 kts 26°
2026-05-05 14:49 35.55444 139.79018 30 ft 12 kts 45°
2026-05-05 14:49 35.55549 139.79011 29 ft 22 kts 332°
2026-05-05 14:50 35.55709 139.78895 24 ft 31 kts 330°
2026-05-05 14:50 35.55908 139.78756 22 ft 32 kts 330°
2026-05-05 14:50 35.56091 139.78626 23 ft 30 kts 330°
2026-05-05 14:50 35.56259 139.78505 26 ft 18 kts 330°
2026-05-05 14:51 35.56333 139.78430 27 ft 15 kts 294°
2026-05-05 14:51 35.56298 139.78295 28 ft 18 kts 239°
2026-05-05 14:51 35.56237 139.78165 26 ft 17 kts 240°
2026-05-05 14:51 35.56182 139.78048 26 ft 15 kts 240°
2026-05-05 14:52 35.56131 139.77942 26 ft 14 kts 240°
2026-05-05 14:52 35.56042 139.77752 25 ft 37 kts 239°
2026-05-05 14:52 35.55942 139.77542 23 ft 26 kts 239°
2026-05-05 14:52 35.55851 139.77358 23 ft 24 kts 231°
2026-05-05 14:53 35.55739 139.77253 21 ft 18 kts 214°
2026-05-05 14:53 35.55668 139.77190 26 ft 10 kts 218°
2026-05-05 14:53 35.55613 139.77184 26 ft 7 kts 157°
2026-05-05 14:53 35.55448 139.77296 24 ft 59 kts 149°
2026-05-05 14:54 35.54902 139.77685 20 ft 121 kts 149°
2026-05-05 14:54 35.54028 139.78307 120 ft 163 kts 150°
2026-05-05 14:54 35.53024 139.79012 842 ft 166 kts 152°
2026-05-05 14:54 35.51998 139.79734 1568 ft 179 kts 152°
2026-05-05 14:55 35.50883 139.80524 2160 ft 192 kts 152°
2026-05-05 14:55 35.49675 139.81383 2668 ft 209 kts 151°
2026-05-05 14:55 35.48373 139.82308 3365 ft 222 kts 151°
2026-05-05 14:55 35.46976 139.83301 4056 ft 242 kts 150°
2026-05-05 14:56 35.45474 139.84369 4845 ft 255 kts 151°
2026-05-05 14:56 35.43834 139.85274 5699 ft 263 kts 166°
2026-05-05 14:56 35.41992 139.85462 5943 ft 266 kts 189°
2026-05-05 14:56 35.40212 139.84846 6006 ft 274 kts 199°
2026-05-05 14:57 35.38400 139.84041 5997 ft 276 kts 201°
2026-05-05 14:57 35.36602 139.83219 5994 ft 273 kts 201°
2026-05-05 14:57 35.34836 139.82430 6018 ft 274 kts 200°
2026-05-05 14:57 35.33043 139.81653 7001 ft 270 kts 200°
2026-05-05 14:58 35.31239 139.80879 7921 ft 274 kts 200°
2026-05-05 14:58 35.29409 139.80098 8804 ft 283 kts 200°
2026-05-05 14:58 35.27556 139.79297 9761 ft 285 kts 200°
2026-05-05 14:58 35.25653 139.78471 10482 ft 296 kts 200°
2026-05-05 14:59 35.23662 139.77627 10921 ft 315 kts 197°
2026-05-05 14:59 35.21501 139.77075 10985 ft 342 kts 187°
2026-05-05 14:59 35.19033 139.77169 11004 ft 368 kts 170°
2026-05-05 14:59 35.16504 139.78136 11019 ft 391 kts 161°
2026-05-05 15:00 35.13958 139.79395 10989 ft 394 kts 157°
2026-05-05 15:00 35.12306 139.80306 11005 ft 390 kts 156°
2026-05-05 15:00 35.09029 139.82147 10998 ft 390 kts 156°
2026-05-05 15:00 35.06544 139.83467 10998 ft 389 kts 158°
2026-05-05 15:01 35.04067 139.84720 10990 ft 389 kts 159°
2026-05-05 15:01 35.01571 139.85969 11048 ft 390 kts 158°
2026-05-05 15:01 34.99034 139.87268 11065 ft 390 kts 158°
2026-05-05 15:01 34.96650 139.88843 11089 ft 389 kts 145°
2026-05-05 15:02 34.94712 139.91140 11049 ft 389 kts 128°
2026-05-05 15:02 34.93427 139.93997 11024 ft 389 kts 111°
2026-05-05 15:02 34.92489 139.97117 11015 ft 391 kts 109°
2026-05-05 15:02 34.91649 140.00253 11011 ft 391 kts 107°
2026-05-05 15:03 34.91218 140.03513 11001 ft 391 kts 90°
2026-05-05 15:03 34.91687 140.06771 10991 ft 391 kts 69°
2026-05-05 15:03 34.93113 140.09573 11017 ft 391 kts 46°
2026-05-05 15:03 34.95311 140.11494 11028 ft 390 kts 26°
2026-05-05 15:04 34.97789 140.12922 10999 ft 391 kts 23°
2026-05-05 15:04 35.00259 140.14199 11001 ft 390 kts 21°
2026-05-05 15:04 35.02773 140.15469 11001 ft 390 kts 22°
2026-05-05 15:04 35.05272 140.16782 11002 ft 390 kts 23°
2026-05-05 15:05 35.10230 140.19515 10995 ft 391 kts 23°
2026-05-05 15:05 35.12710 140.20878 10998 ft 391 kts 23°
2026-05-05 15:05 35.15165 140.22210 11025 ft 390 kts 23°
2026-05-05 15:06 35.17676 140.23561 10748 ft 393 kts 22°
2026-05-05 15:06 35.20163 140.24906 10466 ft 389 kts 23°
2026-05-05 15:06 35.22645 140.26257 10206 ft 388 kts 23°
2026-05-05 15:06 35.25112 140.27602 9957 ft 389 kts 23°
2026-05-05 15:07 35.27594 140.28957 9723 ft 389 kts 23°
2026-05-05 15:07 35.30060 140.30302 9501 ft 389 kts 23°
2026-05-05 15:07 35.32525 140.31648 9281 ft 390 kts 23°
2026-05-05 15:07 35.35012 140.33003 9043 ft 390 kts 23°
2026-05-05 15:08 35.37494 140.34359 8816 ft 391 kts 23°
2026-05-05 15:08 35.39991 140.35723 8570 ft 391 kts 23°
2026-05-05 15:08 35.42482 140.37084 8341 ft 391 kts 23°
2026-05-05 15:08 35.44968 140.38444 8093 ft 390 kts 23°
2026-05-05 15:09 35.47417 140.39786 7855 ft 390 kts 23°
2026-05-05 15:09 35.49934 140.41045 7582 ft 390 kts 13°
2026-05-05 15:09 35.52612 140.41212 7357 ft 387 kts 351°
2026-05-05 15:09 35.55220 140.40358 7126 ft 389 kts 337°
2026-05-05 15:10 35.57626 140.38794 6880 ft 390 kts 325°
2026-05-05 15:10 35.59784 140.36797 6654 ft 388 kts 319°
2026-05-05 15:10 35.61794 140.34583 6402 ft 387 kts 315°
2026-05-05 15:10 35.63719 140.32292 6167 ft 390 kts 317°
2026-05-05 15:11 35.66081 140.30663 6053 ft 396 kts 342°
2026-05-05 15:11 35.68840 140.30332 6026 ft 403 kts
2026-05-05 15:11 35.71635 140.30523 5971 ft 401 kts 353°
2026-05-05 15:11 35.74335 140.29682 6006 ft 398 kts 338°
2026-05-05 15:12 35.76818 140.28276 5986 ft 396 kts 330°
2026-05-05 15:12 35.79188 140.26567 5983 ft 395 kts 326°
2026-05-05 15:12 35.81496 140.24703 5989 ft 396 kts 324°
2026-05-05 15:12 35.83765 140.22759 6002 ft 394 kts 323°
2026-05-05 15:13 35.85994 140.20788 6019 ft 394 kts 322°
2026-05-05 15:13 35.88207 140.18802 6018 ft 395 kts 322°
2026-05-05 15:13 35.90427 140.16791 6014 ft 394 kts 322°
2026-05-05 15:13 35.92598 140.14817 5993 ft 389 kts 322°
2026-05-05 15:14 35.94732 140.12868 5940 ft 373 kts 322°
2026-05-05 15:14 35.96797 140.11027 5751 ft 357 kts 327°
2026-05-05 15:14 35.99108 140.10106 5542 ft 344 kts 354°
2026-05-05 15:14 36.01410 140.10214 5052 ft 324 kts
2026-05-05 15:15 36.03399 140.11117 5073 ft 291 kts 36°
2026-05-05 15:15 36.04722 140.12885 4535 ft 280 kts 62°
2026-05-05 15:15 36.05255 140.15130 4148 ft 264 kts 92°
2026-05-05 15:15 36.04812 140.17187 3782 ft 246 kts 126°
2026-05-05 15:16 36.03728 140.18733 3549 ft 229 kts 137°
2026-05-05 15:16 36.02711 140.20209 3092 ft 229 kts 127°
2026-05-05 15:16 36.01959 140.22006 2692 ft 225 kts 122°
2026-05-05 15:16 36.01100 140.23421 3088 ft 195 kts 139°
2026-05-05 15:17 35.99927 140.24343 2680 ft 208 kts 161°
2026-05-05 15:17 35.98468 140.24724 2191 ft 224 kts 174°
2026-05-05 15:17 35.97014 140.25096 2786 ft 207 kts 167°
2026-05-05 15:17 35.95724 140.25782 3333 ft 205 kts 148°
2026-05-05 15:18 35.94512 140.26850 3348 ft 232 kts 147°
2026-05-05 15:18 35.93153 140.28005 3134 ft 227 kts 147°
2026-05-05 15:18 35.91989 140.29113 2887 ft 198 kts 143°
2026-05-05 15:18 35.90958 140.30056 2739 ft 172 kts 146°
2026-05-05 15:19 35.89954 140.30855 2177 ft 172 kts 150°
2026-05-05 15:19 35.88987 140.31518 2045 ft 151 kts 154°
2026-05-05 15:19 35.88055 140.32103 1771 ft 150 kts 155°
2026-05-05 15:19 35.87142 140.32731 1643 ft 150 kts 150°
2026-05-05 15:20 35.86534 140.33169 1519 ft 156 kts 151°
2026-05-05 15:20 35.85271 140.34093 1333 ft 162 kts 150°
2026-05-05 15:20 35.84640 140.34577 1203 ft 161 kts 146°
2026-05-05 15:20 35.83712 140.35364 961 ft 163 kts 144°
2026-05-05 15:21 35.82783 140.36151 691 ft 158 kts 147°
2026-05-05 15:21 35.81862 140.36828 494 ft 150 kts 151°
2026-05-05 15:21 35.80981 140.37461 306 ft 148 kts 151°
2026-05-05 15:21 35.80135 140.38078 147 ft 132 kts 150°
2026-05-05 15:22 35.79547 140.38512 143 ft 65 kts 149°
2026-05-05 15:22 35.79326 140.38672 145 ft 26 kts 149°
2026-05-05 15:22 35.79173 140.38780 144 ft 26 kts 149°
2026-05-05 15:22 35.79025 140.38883 144 ft 24 kts 156°
2026-05-05 15:23 35.78866 140.38938 141 ft 23 kts 174°
2026-05-05 15:23 35.78713 140.38955 143 ft 21 kts 174°
2026-05-05 15:23 35.78575 140.38984 143 ft 19 kts 154°
2026-05-05 15:23 35.78475 140.39083 143 ft 18 kts 141°
2026-05-05 15:24 35.78360 140.39142 143 ft 17 kts 166°
2026-05-05 15:24 35.78249 140.39176 143 ft 16 kts 165°
2026-05-05 15:24 35.78144 140.39180 143 ft 15 kts 209°
2026-05-05 15:24 35.78064 140.39119 143 ft 13 kts 179°
2026-05-05 15:25 35.77985 140.39170 143 ft 13 kts 136°
2026-05-05 15:25 35.77941 140.39257 143 ft 12 kts 117°
2026-05-05 15:25 35.77905 140.39345 143 ft 11 kts 116°
2026-05-05 15:25 35.77886 140.39393 143 ft 0 kts 116°
2026-05-05 15:26 35.77862 140.39450 143 ft 17 kts 121°
2026-05-05 15:26 35.77773 140.39538 143 ft 16 kts 149°
2026-05-05 15:27 35.77680 140.39605 143 ft 15 kts 150°
2026-05-05 15:27 35.77593 140.39667 143 ft 14 kts 150°
2026-05-05 15:27 35.77512 140.39725 143 ft 13 kts 150°
2026-05-05 15:27 35.77435 140.39780 143 ft 12 kts 150°
2026-05-05 15:28 35.77364 140.39831 143 ft 11 kts 150°
2026-05-05 15:28 35.77294 140.39866 143 ft 11 kts 184°
2026-05-05 15:28 35.77231 140.39828 143 ft 10 kts 199°
2026-05-05 15:28 35.77148 140.39859 143 ft 16 kts 152°
2026-05-05 15:29 35.77045 140.39860 143 ft 15 kts 201°
2026-05-05 15:29 35.76954 140.39811 143 ft 14 kts 204°
2026-05-05 15:29 35.76864 140.39781 143 ft 13 kts 185°
2026-05-05 15:29 35.76781 140.39760 143 ft 12 kts 208°
2026-05-05 15:30 35.76716 140.39697 143 ft 11 kts 220°
2026-05-05 15:30 35.76645 140.39640 143 ft 15 kts 206°
2026-05-05 15:30 35.76534 140.39579 143 ft 18 kts 204°
2026-05-05 15:30 35.76426 140.39519 143 ft 17 kts 204°
2026-05-05 15:31 35.76324 140.39462 143 ft 16 kts 204°
2026-05-05 15:31 35.76227 140.39410 143 ft 15 kts 204°
2026-05-05 15:31 35.76138 140.39362 143 ft 14 kts 204°
2026-05-05 15:31 35.76054 140.39314 143 ft 13 kts 205°
2026-05-05 15:32 35.75979 140.39261 143 ft 12 kts 228°
2026-05-05 15:32 35.75994 140.39175 143 ft 12 kts 326°
2026-05-05 15:32 35.76043 140.39107 143 ft 11 kts 281°
2026-05-05 15:32 35.76023 140.39027 143 ft 9 kts 261°
2026-05-05 15:33 35.76021 140.38953 143 ft 8 kts 247°
2026-05-05 15:33 35.75979 140.38909 143 ft 8 kts 207°
2026-05-05 15:33 35.75931 140.38882 143 ft 7 kts 204°
2026-05-05 15:33 35.75886 140.38857 143 ft 7 kts 204°
2026-05-05 15:34 35.75847 140.38827 143 ft 6 kts 220°
2026-05-05 15:34 35.75819 140.38787 143 ft 6 kts 242°
2026-05-05 15:34 35.75817 140.38740 143 ft 6 kts 292°
2026-05-05 15:34 35.75846 140.38712 143 ft 5 kts 330°
2026-05-05 15:35 35.75858 140.38704 143 ft 0 kts 334°